FDX3 EDDM-EDDF

Flight info

Callsign FDX3
Flight time N/A
Altitude 24000
Route GIVMI6S GIVMI Y101 ERNAS T161 DEBHI DEBHI1C
Aircraft B77L/H-SDE1E2E3FGHIJ2J3J4J5M1RWXY/LB1D1

Departure

Time 2026-05-07 19:11
Airport Munich Airport (EDDM)

Arrival

Time N/A
Airport Frankfurt Main Airport (EDDF)
Time Latitude Longitude Altitude Speed Heading
2026-05-07 18:39 48.34889 11.77280 1490 ft 0 kts 353°
2026-05-07 18:55 48.34887 11.77280 1490 ft 3 kts 353°
2026-05-07 18:55 48.34860 11.77285 1477 ft 4 kts 353°
2026-05-07 18:55 48.34838 11.77290 1490 ft 2 kts 353°
2026-05-07 18:55 48.34813 11.77290 1490 ft 4 kts 18°
2026-05-07 18:56 48.34794 11.77270 1485 ft 4 kts 75°
2026-05-07 18:56 48.34790 11.77233 1490 ft 4 kts 83°
2026-05-07 18:56 48.34789 11.77216 1490 ft 1 kts 83°
2026-05-07 19:01 48.34793 11.77263 1484 ft 11 kts 83°
2026-05-07 19:01 48.34786 11.77368 1474 ft 10 kts 127°
2026-05-07 19:02 48.34727 11.77404 1477 ft 7 kts 173°
2026-05-07 19:02 48.34710 11.77407 1479 ft 3 kts 173°
2026-05-07 19:02 48.34707 11.77407 1481 ft 0 kts 173°
2026-05-07 19:04 48.34646 11.77439 1474 ft 14 kts 138°
2026-05-07 19:04 48.34639 11.77580 1479 ft 15 kts 83°
2026-05-07 19:04 48.34655 11.77791 1486 ft 24 kts 83°
2026-05-07 19:04 48.34675 11.78043 1490 ft 24 kts 83°
2026-05-07 19:05 48.34695 11.78297 1477 ft 24 kts 83°
2026-05-07 19:05 48.34714 11.78551 1484 ft 24 kts 83°
2026-05-07 19:05 48.34734 11.78803 1485 ft 24 kts 83°
2026-05-07 19:05 48.34753 11.79057 1480 ft 24 kts 83°
2026-05-07 19:06 48.34773 11.79310 1481 ft 24 kts 83°
2026-05-07 19:06 48.34812 11.79816 1483 ft 24 kts 83°
2026-05-07 19:06 48.34828 11.80026 1483 ft 14 kts 83°
2026-05-07 19:07 48.34808 11.80168 1475 ft 15 kts 124°
2026-05-07 19:07 48.34748 11.80239 1477 ft 10 kts 166°
2026-05-07 19:07 48.34671 11.80254 1484 ft 12 kts 173°
2026-05-07 19:07 48.34608 11.80265 1488 ft 8 kts 173°
2026-05-07 19:08 48.34539 11.80278 1483 ft 12 kts 173°
2026-05-07 19:08 48.34468 11.80235 1477 ft 12 kts 240°
2026-05-07 19:08 48.34459 11.80174 1490 ft 1 kts 263°
2026-05-07 19:08 48.34459 11.80172 1490 ft 0 kts 263°
2026-05-07 19:10 48.34455 11.80128 1490 ft 20 kts 263°
2026-05-07 19:11 48.34409 11.79533 1479 ft 104 kts 263°
2026-05-07 19:11 48.34283 11.78034 1545 ft 175 kts 263°
2026-05-07 19:11 48.34129 11.76244 2504 ft 175 kts 265°
2026-05-07 19:11 48.34007 11.74346 3312 ft 195 kts 266°
2026-05-07 19:12 48.33869 11.72169 3890 ft 219 kts 265°
2026-05-07 19:12 48.33705 11.69852 4944 ft 225 kts 264°
2026-05-07 19:12 48.33531 11.67507 6035 ft 227 kts 264°
2026-05-07 19:12 48.33349 11.65137 6807 ft 229 kts 264°
2026-05-07 19:13 48.33450 11.62777 7691 ft 232 kts 289°
2026-05-07 19:13 48.34266 11.60694 8794 ft 233 kts 304°
2026-05-07 19:13 48.35263 11.58719 9703 ft 246 kts 304°
2026-05-07 19:13 48.36340 11.56571 10314 ft 268 kts 304°
2026-05-07 19:14 48.37544 11.54376 11134 ft 281 kts 315°
2026-05-07 19:14 48.39366 11.52840 11504 ft 322 kts 336°
2026-05-07 19:14 48.41599 11.51745 12141 ft 347 kts 339°
2026-05-07 19:14 48.43930 11.50616 13386 ft 355 kts 339°
2026-05-07 19:15 48.46290 11.49432 14641 ft 360 kts 338°
2026-05-07 19:15 48.48675 11.48195 15879 ft 364 kts 338°
2026-05-07 19:15 48.50268 11.47350 16681 ft 367 kts 337°
2026-05-07 19:15 48.53490 11.45612 18313 ft 373 kts 336°
2026-05-07 19:16 48.55951 11.44269 19352 ft 379 kts 336°
2026-05-07 19:16 48.58427 11.42914 20547 ft 378 kts 337°
2026-05-07 19:16 48.60886 11.41567 21924 ft 373 kts 337°
2026-05-07 19:16 48.62507 11.40678 22670 ft 377 kts 337°
2026-05-07 19:17 48.65000 11.39306 23385 ft 382 kts 337°
2026-05-07 19:17 48.67513 11.37924 23963 ft 387 kts 337°
2026-05-07 19:17 48.69995 11.36342 24038 ft 389 kts 331°
2026-05-07 19:17 48.72350 11.34333 24046 ft 387 kts 324°
2026-05-07 19:18 48.74572 11.32056 24057 ft 385 kts 323°
2026-05-07 19:18 48.76784 11.29768 24067 ft 384 kts 323°
2026-05-07 19:18 48.78999 11.27496 24056 ft 384 kts 323°
2026-05-07 19:18 48.81212 11.25243 24058 ft 383 kts 323°
2026-05-07 19:19 48.83425 11.22991 24053 ft 383 kts 323°
2026-05-07 19:19 48.85538 11.20553 24058 ft 380 kts 316°
2026-05-07 19:19 48.87491 11.17842 24069 ft 380 kts 315°
2026-05-07 19:19 48.89414 11.15126 24058 ft 381 kts 315°
2026-05-07 19:20 48.91376 11.12369 24058 ft 381 kts 315°
2026-05-07 19:20 48.93304 11.09676 24070 ft 382 kts 315°
2026-05-07 19:20 48.95267 11.06941 24074 ft 382 kts 315°
2026-05-07 19:20 48.97226 11.04207 24078 ft 382 kts 315°
2026-05-07 19:21 48.99182 11.01458 24079 ft 383 kts 315°
2026-05-07 19:21 49.01142 10.98694 24082 ft 384 kts 315°
2026-05-07 19:21 49.03099 10.95931 24100 ft 384 kts 315°
2026-05-07 19:21 49.05061 10.93160 24096 ft 384 kts 315°
2026-05-07 19:22 49.07024 10.90386 24098 ft 385 kts 315°
2026-05-07 19:22 49.08994 10.87600 24101 ft 385 kts 315°
2026-05-07 19:22 49.10960 10.84826 24098 ft 385 kts 315°
2026-05-07 19:22 49.12922 10.82056 24113 ft 385 kts 315°
2026-05-07 19:23 49.14888 10.79279 24114 ft 385 kts 315°
2026-05-07 19:23 49.16827 10.76535 24115 ft 385 kts 315°
2026-05-07 19:23 49.18791 10.73752 24114 ft 384 kts 315°
2026-05-07 19:23 49.20740 10.70940 24106 ft 384 kts 313°
2026-05-07 19:24 49.22613 10.68028 24069 ft 383 kts 311°
2026-05-07 19:24 49.24455 10.65083 24071 ft 383 kts 311°
2026-05-07 19:24 49.26293 10.62137 24086 ft 384 kts 312°
2026-05-07 19:24 49.28150 10.59178 24085 ft 385 kts 312°
2026-05-07 19:25 49.30018 10.56217 24084 ft 387 kts 313°
2026-05-07 19:25 49.31894 10.53252 24080 ft 389 kts 313°
2026-05-07 19:25 49.33771 10.50288 24072 ft 382 kts 313°
2026-05-07 19:25 49.35599 10.47399 24061 ft 372 kts 312°
2026-05-07 19:26 49.37280 10.44456 23854 ft 364 kts 306°
2026-05-07 19:26 49.38719 10.41367 23552 ft 357 kts 303°
2026-05-07 19:26 49.40089 10.38224 23206 ft 351 kts 302°
2026-05-07 19:26 49.41439 10.35116 22899 ft 347 kts 302°
2026-05-07 19:27 49.42785 10.32062 22616 ft 344 kts 303°
2026-05-07 19:27 49.44133 10.29042 22342 ft 341 kts 303°
2026-05-07 19:27 49.45478 10.26056 22059 ft 338 kts 303°
2026-05-07 19:27 49.46818 10.23092 21769 ft 336 kts 303°
2026-05-07 19:28 49.48149 10.20153 21491 ft 335 kts 303°
2026-05-07 19:28 49.49479 10.17217 21229 ft 334 kts 303°
2026-05-07 19:28 49.50807 10.14284 20955 ft 333 kts 303°
2026-05-07 19:28 49.52129 10.11360 20681 ft 333 kts 303°
2026-05-07 19:29 49.53450 10.08432 20416 ft 333 kts 303°